SCP
0 0 0 0 0 0 0 0 0 0 0 0 0 0 0 0 0 0 0 0 0 0 0 0 0 0 0 0 0 0 0 0 0 0 0 0 0 0
0 0 0 0 0 0 0 0 0 0 0 0 0 0 0 0 0 0 0 0 0 0 0 0 0 0 0 0 0 0 0 0 0 0 0 0 0 0
0 0 0 0 0 0 0 0 0 0 0 0 0 0 0 0 0 0 0 0 0 0 0 0 0 0 0 0 0 0 0 0 0 0 0 0 0 0
0 0 0 0 0 0 0 0 0 0 0 0 0 0 0 0 0 0 0 0 0 0 0 0 0 0 0 0 0 0 0 0 0 0 0 0 0 0
0 0 0 0 0 0 0 0 0 0 0 0 0 0 0 0 0 0 0 0 0 0 0 0 0 0 0 0 0 0 0 0 0 0 0 0 0 0
0 0 0 0 0 0 0 0 0 0 0 0 0 0 0 0 0 0 0 0 0 0 0 0 0 0 0 0 0 0 0 0 0 0 0 0 0 0
0 0 0 0 0 0 0 0 0 0 0 0 0 0 0 0 0 0 0 0 0 0 0 0 0 0 0 0 0 0 0 0 0 0 0 0 0 0
0 0 0 0 0 0 0 0 0 0 0 0 0 0 0 0 0 0 0 0 0 0 0 0 0 0 0 0 0 0 0 0 0 0 0 0 0 0
0 0 0 0 0 0 0 0 0 0 0 0 0 0 0 0 0 0 0 0 0 0 0 0 0 0 0 0 0 0 0 0 0 0 0 0 0 0
0 0 0 0 0 0 0 0 0 0 0 0 0 0 0 0 0 0 0 0 0 0 0 0 0 0 0 0 0 0 0 0 0 0 0 0 0 0
0 0 0 0 0 0 0 0 0 0 0 0 0 0 0 0 0 0 0 0 0 0 0 0 0 0 0 0 0 0 0 0 0 0 0 0 0 0
0 0 0 0 0 0 0 0 0 0 0 0 0 0 0 0 0 0 0 0 0 0 0 0 0 0 0 0 0 0 0 0 0 0 0 0 0 0
0 0 0 0 0 0 0 0 0 0 0 0 0 0 0 0 0 0 0 0 0 0 0 0 0 0 0 0 0 0 0 0 0 0 0 0 0 0
0 0 0 0 0 0 0 0 0 0 0 0 0 0 0 0 0 0 0 0 0 0 0 0 0 0 0 0 0 0 0 0 0 0 0 0 0 0
0 0 0 0 0 0 0 0 0 0 0 0 0 0 0 0 0 0 0 0 0 0 0 0 0 0 0 0 0 0 0 0 0 0 0 0 0 0
0 0 0 0 0 0 0 0 0 0 0 0 0 0 0 0 0 0 0 0 0 0 0 0 0 0 0 0 0 0 0 0 0 0 0 0 0 0
0 0 0 0 0 0 0 0 0 0 0 0 0 0 0 0 0 0 0 0 0 0 0 0 0 0 0 0 0 0 0 0 0 0 0 0 0 0
0 0 0 0 0 0 0 0 0 0 0 0 0 0 0 0 0 0 0 0 0 0 0 0 0 0 0 0 0 0 0 0 0 0 0 0 0 0
0 0 0 0 0 0 0 0 0 0 0 0 0 0 0 0 0 0 0 0 0 0 0 0 0 0 0 0 0 0 0 0 0 0 0 0 0 0
0 0 0 0 0 0 0 0 0 0 0 0 0 0 0 0 0 0 0 0 0 0 0 0 0 0 0 0 0 0 0 0 0 0 0 0 0 0
0 0 0 0 0 0 0 0 0 0 0 0 0 0 0 0 0 0 0 0 0 0 0 0 0 0 0 0 0 0 0 0 0 0 0 0 0 0
0 0 0 0 0 0 0 0 0 0 0 0 0 0 0 0 0 0 0 0 0 0 0 0 0 0 0 0 0 0 0 0 0 0 0 0 0 0
0 0 0 0 0 0 0 0 0 0 0 0 0 0 0 0 0 0 0 0 0 0 0 0 0 0 0 0 0 0 0 0 0 0 0 0 0 0
Wind_Speed_500mb
46 50 51 49 53 55 55 59 64 69 75 72 77 78 76 76 78 72 72 69 66 66 67 69 74 77 75 77 80 85 96 108 116 114 98 98 102 89
48 49 50 51 53 56 58 61 64 73 95 85 90 94 91 88 80 77 74 71 71 71 69 67 69 71 78 81 82 82 86 98 112 104 110 108 113 100
46 49 51 51 55 57 58 60 64 69 86 101 95 92 93 93 91 86 82 78 75 68 68 69 72 75 78 81 82 84 84 88 101 115 109 102 109 101
43 46 48 50 53 53 56 60 62 65 76 98 93 97 95 95 98 98 96 90 84 81 74 71 72 75 76 80 83 86 85 87 92 106 116 95 111 107
37 41 45 49 53 54 57 60 65 68 72 87 105 96 101 98 101 98 98 98 97 88 81 77 73 73 77 80 83 85 85 85 86 92 109 104 110 104
40 44 47 50 53 55 58 61 64 68 71 80 94 100 96 94 93 91 99 97 101 100 94 87 83 77 77 78 82 84 85 83 86 95 115 110 122 107
48 51 54 55 56 58 62 64 66 70 74 82 92 99 97 86 81 86 93 95 107 105 100 100 90 84 80 78 80 78 79 82 85 90 97 106 98 103
56 58 60 63 65 66 67 69 70 72 75 77 90 90 104 95 90 85 83 92 97 91 89 108 100 103 96 89 84 78 78 78 77 80 88 111 108 103
64 68 70 70 73 75 75 75 74 71 73 75 85 90 97 90 83 88 89 85 97 97 96 110 96 109 106 102 91 80 74 70 68 72 96 108 107 107
68 69 71 72 71 73 75 76 76 74 72 73 73 83 84 88 83 85 92 92 96 92 90 96 98 105 105 102 91 78 67 64 63 65 94 103 111 109
68 67 68 70 69 69 71 75 78 78 77 71 73 76 81 83 83 80 86 84 84 88 90 87 90 95 96 91 83 70 62 58 56 63 91 101 105 101
71 72 72 72 72 63 63 70 83 91 86 83 82 82 80 80 78 73 78 79 84 83 67 62 78 77 67 69 57 42 47 49 52 63 91 98 102 91
73 78 76 74 74 69 66 72 78 76 77 80 81 85 79 75 70 72 74 74 78 84 79 74 82 78 65 66 67 60 47 41 45 66 91 100 93 92
77 81 83 82 77 73 72 73 66 65 71 77 80 86 85 78 70 71 77 77 79 70 63 62 72 64 62 58 53 48 39 31 41 66 84 83 75 68
73 78 80 81 80 85 78 69 66 63 64 67 73 82 79 76 75 71 66 57 55 55 55 51 55 58 52 43 43 41 31 35 47 74 92 77 74 75
74 77 77 77 76 74 72 68 65 64 63 71 77 76 71 71 67 61 59 51 57 60 54 46 43 39 42 38 36 30 24 31 53 75 80 81 78 72
69 69 72 71 71 71 69 66 65 61 65 68 69 68 68 65 60 53 48 53 50 53 50 42 35 34 36 32 30 25 22 33 40 63 78 73 74 66
56 50 55 57 60 63 66 68 63 63 67 64 59 61 59 57 49 43 41 41 41 43 43 39 34 34 31 27 25 22 24 30 42 51 63 67 67 70
47 45 47 53 59 59 52 53 62 65 57 53 56 55 53 44 43 39 39 37 34 35 34 30 29 33 32 30 23 17 20 26 35 51 65 66 62 67
47 48 51 50 51 52 52 52 55 56 55 53 51 51 45 41 36 35 35 32 31 32 32 27 23 29 32 33 24 19 18 24 31 47 57 57 53 51
49 47 47 49 51 52 52 52 51 50 45 47 50 47 42 38 34 32 32 30 28 29 30 28 23 21 26 22 20 19 17 22 23 31 39 46 49 48
48 48 47 47 48 51 52 51 49 46 42 39 36 38 41 39 37 33 31 31 29 28 28 26 20 19 26 31 25 20 21 25 24 24 26 31 33 34
47 48 49 49 47 47 48 47 46 45 43 41 39 38 34 38 37 33 31 29 27 26 28 26 21 19 26 33 32 27 26 27 32 35 36 40 42 37
Wind_Direction_500mb
279 287 285 285 287 290 291 290 292 289 291 294 296 300 303 304 305 306 304 303 300 294 290 286 282 281 279 276 270 266 263 256 255 255 247 240 231 224
284 284 285 286 287 287 288 289 289 291 290 290 293 298 301 302 304 301 300 299 297 297 295 289 285 282 279 278 273 269 263 259 255 250 253 249 235 228
283 286 288 288 286 286 287 286 285 284 287 294 296 302 301 303 303 303 302 299 298 294 293 291 287 283 279 278 276 272 267 260 255 255 251 243 237 222
289 291 294 297 297 298 298 298 297 294 292 297 300 301 302 303 304 305 305 304 303 302 301 292 285 284 283 281 281 279 274 265 255 250 254 246 228 222
303 304 305 305 305 305 306 303 300 299 294 296 298 300 301 303 304 303 303 304 304 305 303 300 295 287 283 281 281 279 277 270 260 252 244 253 227 220
302 302 303 303 304 304 302 299 298 296 295 294 297 299 299 301 300 299 299 302 302 306 303 300 297 293 285 283 280 279 278 276 265 249 252 247 223 211
304 304 302 301 300 299 299 300 299 298 296 295 294 297 296 297 295 297 296 298 302 301 302 302 303 298 293 291 287 282 278 274 264 252 247 231 222 211
310 309 309 309 307 305 302 299 297 297 294 293 294 291 296 296 296 293 293 295 295 296 295 297 297 295 295 291 288 285 281 278 270 249 245 226 228 208
312 310 306 305 304 304 303 301 299 297 294 294 293 293 296 297 293 293 294 289 288 291 291 290 290 292 295 294 295 291 286 278 268 247 233 228 221 206
305 304 304 305 306 306 305 304 304 303 305 303 300 300 299 298 295 295 294 293 291 291 293 283 291 290 293 294 295 290 282 274 264 240 229 225 215 205
307 306 306 307 308 309 309 308 307 307 309 306 302 298 300 298 291 293 289 286 285 288 291 288 288 288 291 291 291 289 280 267 254 233 219 218 210 194
315 316 316 316 316 315 311 310 306 309 311 310 308 307 307 301 298 293 292 288 287 286 296 286 288 284 281 288 295 297 284 264 241 231 220 215 197 195
320 320 318 316 313 310 307 302 301 306 304 301 305 313 315 312 309 304 300 292 291 284 289 291 288 281 270 276 288 292 287 265 228 225 222 205 193 201
320 318 317 317 314 311 308 306 302 306 308 308 312 316 317 316 311 301 297 293 293 289 293 288 284 276 275 277 285 289 281 253 226 217 202 186 191 195
319 316 315 315 317 317 319 315 315 312 309 309 310 309 313 315 312 307 305 301 302 298 295 290 285 279 271 278 282 282 264 231 221 192 187 184 193 197
321 319 320 321 322 326 327 328 324 323 316 314 314 315 315 315 314 314 310 311 306 301 304 296 286 278 266 272 274 277 261 214 197 210 197 195 199 204
322 323 324 326 327 330 330 327 325 322 317 317 315 315 316 315 314 315 315 309 304 301 300 293 274 263 261 269 272 271 257 229 201 196 196 193 199 208
328 322 319 320 319 322 325 328 326 326 323 319 316 317 315 315 314 316 318 315 308 300 298 293 282 254 246 249 254 262 253 237 217 203 202 203 208 212
329 324 316 314 316 314 320 332 325 324 324 320 321 319 317 315 314 318 321 320 314 300 296 293 275 253 243 237 249 249 247 239 213 205 210 216 227 221
338 340 337 333 332 329 323 319 320 326 329 326 323 321 318 312 317 321 318 322 315 302 300 297 272 255 249 247 248 246 220 226 221 212 212 214 221 223
334 339 339 337 334 332 329 327 322 319 323 331 328 324 322 321 317 318 318 317 309 300 297 302 298 267 251 251 237 231 219 210 218 226 216 218 222 226
340 339 338 338 338 337 335 333 331 329 321 322 326 331 329 321 319 318 313 310 308 301 298 299 293 266 237 234 238 232 217 208 200 200 209 219 220 221
342 342 340 339 338 338 338 338 337 337 336 332 324 319 326 329 323 320 316 313 311 297 287 288 284 259 243 240 238 230 219 213 209 206 208 215 226 233
Wind_Speed_850mb
46 50 51 49 53 55 55 59 64 69 75 72 77 78 76 76 78 72 72 69 66 66 67 69 74 77 75 77 80 85 96 108 116 114 98 98 102 89
48 49 50 51 53 56 58 61 64 73 95 85 90 94 91 88 80 77 74 71 71 71 69 67 69 71 78 81 82 82 86 98 112 104 110 108 113 100
46 49 51 51 55 57 58 60 64 69 86 101 95 92 93 93 91 86 82 78 75 68 68 69 72 75 78 81 82 84 84 88 101 115 109 102 109 101
43 46 48 50 53 53 56 60 62 65 76 98 93 97 95 95 98 98 96 90 84 81 74 71 72 75 76 80 83 86 85 87 92 106 116 95 111 107
37 41 45 49 53 54 57 60 65 68 72 87 105 96 101 98 101 98 98 98 97 88 81 77 73 73 77 80 83 85 85 85 86 92 109 104 110 104
40 44 47 50 53 55 58 61 64 68 71 80 94 100 96 94 93 91 99 97 101 100 94 87 83 77 77 78 82 84 85 83 86 95 115 110 122 107
48 51 54 55 56 58 62 64 66 70 74 82 92 99 97 86 81 86 93 95 107 105 100 100 90 84 80 78 80 78 79 82 85 90 97 106 98 103
56 58 60 63 65 66 67 69 70 72 75 77 90 90 104 95 90 85 83 92 97 91 89 108 100 103 96 89 84 78 78 78 77 80 88 111 108 103
64 68 70 70 73 75 75 75 74 71 73 75 85 90 97 90 83 88 89 85 97 97 96 110 96 109 106 102 91 80 74 70 68 72 96 108 107 107
68 69 71 72 71 73 75 76 76 74 72 73 73 83 84 88 83 85 92 92 96 92 90 96 98 105 105 102 91 78 67 64 63 65 94 103 111 109
68 67 68 70 69 69 71 75 78 78 77 71 73 76 81 83 83 80 86 84 84 88 90 87 90 95 96 91 83 70 62 58 56 63 91 101 105 101
71 72 72 72 72 63 63 70 83 91 86 83 82 82 80 80 78 73 78 79 84 83 67 62 78 77 67 69 57 42 47 49 52 63 91 98 102 91
73 78 76 74 74 69 66 72 78 76 77 80 81 85 79 75 70 72 74 74 78 84 79 74 82 78 65 66 67 60 47 41 45 66 91 100 93 92
77 81 83 82 77 73 72 73 66 65 71 77 80 86 85 78 70 71 77 77 79 70 63 62 72 64 62 58 53 48 39 31 41 66 84 83 75 68
73 78 80 81 80 85 78 69 66 63 64 67 73 82 79 76 75 71 66 57 55 55 55 51 55 58 52 43 43 41 31 35 47 74 92 77 74 75
74 77 77 77 76 74 72 68 65 64 63 71 77 76 71 71 67 61 59 51 57 60 54 46 43 39 42 38 36 30 24 31 53 75 80 81 78 72
69 69 72 71 71 71 69 66 65 61 65 68 69 68 68 65 60 53 48 53 50 53 50 42 35 34 36 32 30 25 22 33 40 63 78 73 74 66
56 50 55 57 60 63 66 68 63 63 67 64 59 61 59 57 49 43 41 41 41 43 43 39 34 34 31 27 25 22 24 30 42 51 63 67 67 70
47 45 47 53 59 59 52 53 62 65 57 53 56 55 53 44 43 39 39 37 34 35 34 30 29 33 32 30 23 17 20 26 35 51 65 66 62 67
47 48 51 50 51 52 52 52 55 56 55 53 51 51 45 41 36 35 35 32 31 32 32 27 23 29 32 33 24 19 18 24 31 47 57 57 53 51
49 47 47 49 51 52 52 52 51 50 45 47 50 47 42 38 34 32 32 30 28 29 30 28 23 21 26 22 20 19 17 22 23 31 39 46 49 48
48 48 47 47 48 51 52 51 49 46 42 39 36 38 41 39 37 33 31 31 29 28 28 26 20 19 26 31 25 20 21 25 24 24 26 31 33 34
47 48 49 49 47 47 48 47 46 45 43 41 39 38 34 38 37 33 31 29 27 26 28 26 21 19 26 33 32 27 26 27 32 35 36 40 42 37
Wind_Direction_850mb
279 287 285 285 287 290 291 290 292 289 291 294 296 300 303 304 305 306 304 303 300 294 290 286 282 281 279 276 270 266 263 256 255 255 247 240 231 224
284 284 285 286 287 287 288 289 289 291 290 290 293 298 301 302 304 301 300 299 297 297 295 289 285 282 279 278 273 269 263 259 255 250 253 249 235 228
283 286 288 288 286 286 287 286 285 284 287 294 296 302 301 303 303 303 302 299 298 294 293 291 287 283 279 278 276 272 267 260 255 255 251 243 237 222
289 291 294 297 297 298 298 298 297 294 292 297 300 301 302 303 304 305 305 304 303 302 301 292 285 284 283 281 281 279 274 265 255 250 254 246 228 222
303 304 305 305 305 305 306 303 300 299 294 296 298 300 301 303 304 303 303 304 304 305 303 300 295 287 283 281 281 279 277 270 260 252 244 253 227 220
302 302 303 303 304 304 302 299 298 296 295 294 297 299 299 301 300 299 299 302 302 306 303 300 297 293 285 283 280 279 278 276 265 249 252 247 223 211
304 304 302 301 300 299 299 300 299 298 296 295 294 297 296 297 295 297 296 298 302 301 302 302 303 298 293 291 287 282 278 274 264 252 247 231 222 211
310 309 309 309 307 305 302 299 297 297 294 293 294 291 296 296 296 293 293 295 295 296 295 297 297 295 295 291 288 285 281 278 270 249 245 226 228 208
312 310 306 305 304 304 303 301 299 297 294 294 293 293 296 297 293 293 294 289 288 291 291 290 290 292 295 294 295 291 286 278 268 247 233 228 221 206
305 304 304 305 306 306 305 304 304 303 305 303 300 300 299 298 295 295 294 293 291 291 293 283 291 290 293 294 295 290 282 274 264 240 229 225 215 205
307 306 306 307 308 309 309 308 307 307 309 306 302 298 300 298 291 293 289 286 285 288 291 288 288 288 291 291 291 289 280 267 254 233 219 218 210 194
315 316 316 316 316 315 311 310 306 309 311 310 308 307 307 301 298 293 292 288 287 286 296 286 288 284 281 288 295 297 284 264 241 231 220 215 197 195
320 320 318 316 313 310 307 302 301 306 304 301 305 313 315 312 309 304 300 292 291 284 289 291 288 281 270 276 288 292 287 265 228 225 222 205 193 201
320 318 317 317 314 311 308 306 302 306 308 308 312 316 317 316 311 301 297 293 293 289 293 288 284 276 275 277 285 289 281 253 226 217 202 186 191 195
319 316 315 315 317 317 319 315 315 312 309 309 310 309 313 315 312 307 305 301 302 298 295 290 285 279 271 278 282 282 264 231 221 192 187 184 193 197
321 319 320 321 322 326 327 328 324 323 316 314 314 315 315 315 314 314 310 311 306 301 304 296 286 278 266 272 274 277 261 214 197 210 197 195 199 204
322 323 324 326 327 330 330 327 325 322 317 317 315 315 316 315 314 315 315 309 304 301 300 293 274 263 261 269 272 271 257 229 201 196 196 193 199 208
328 322 319 320 319 322 325 328 326 326 323 319 316 317 315 315 314 316 318 315 308 300 298 293 282 254 246 249 254 262 253 237 217 203 202 203 208 212
329 324 316 314 316 314 320 332 325 324 324 320 321 319 317 315 314 318 321 320 314 300 296 293 275 253 243 237 249 249 247 239 213 205 210 216 227 221
338 340 337 333 332 329 323 319 320 326 329 326 323 321 318 312 317 321 318 322 315 302 300 297 272 255 249 247 248 246 220 226 221 212 212 214 221 223
334 339 339 337 334 332 329 327 322 319 323 331 328 324 322 321 317 318 318 317 309 300 297 302 298 267 251 251 237 231 219 210 218 226 216 218 222 226
340 339 338 338 338 337 335 333 331 329 321 322 326 331 329 321 319 318 313 310 308 301 298 299 293 266 237 234 238 232 217 208 200 200 209 219 220 221
342 342 340 339 338 338 338 338 337 337 336 332 324 319 326 329 323 320 316 313 311 297 287 288 284 259 243 240 238 230 219 213 209 206 208 215 226 233